Location: Huntsville
(41.2590°N, 111.7678°W)
Time: 21:16:24
(UTC+00:00)

SR - Pass Details

Date: 15 June 2021
Orbit: 577 x 878 km, 66.7° (Epoch: 28 July)

Event Time Altitude Azimuth Distance (km) Brightness Sun altitude
Rises 09:20:10 0° 334° (NNW) 3,316 ? -20.3°
Reaches altitude 10° 09:22:49 10° 341° (NNW) 2,336 ? -20.1°
Maximum altitude 09:27:54 44° 53° (NE) 1,010 ? -19.7°
Drops below altitude 10° 09:32:32 10° 126° (SE) 2,130 ? -19.2°
Sets 09:34:51 0° 133° (SE) 2,993 ? -19.0°
